| time (UTC) | temp F | wind direction | speed MPH | gust MPH | rain 1hr in | rain 24hr in | rain mn in | humidity % | barometer mb |
| 20260507150037 | 73 | 145 | 4.0 | 9.0 | 0.00 | 0.38 | 0.38 | 39 | 1014.3 |
| 20260507145028 | 73 | 146 | 5.0 | 9.0 | 0.00 | 0.38 | 0.38 | 40 | 1014.4 |
| 20260507144037 | 73 | 161 | 3.0 | 7.0 | 0.00 | 0.38 | 0.38 | 40 | 1014.4 |
| 20260507143109 | 73 | 188 | 3.0 | 11.0 | 0.00 | 0.38 | 0.38 | 40 | 1014.5 |
| 20260507142059 | 73 | 173 | 8.0 | 14.0 | 0.00 | 0.38 | 0.38 | 39 | 1014.6 |
| 20260507141048 | 74 | 166 | 4.0 | 11.0 | 0.00 | 0.38 | 0.38 | 41 | 1014.4 |
| 20260507140039 | 74 | 151 | 10.0 | 17.0 | 0.00 | 0.38 | 0.38 | 41 | 1014.4 |
| 20260507135029 | 74 | 147 | 5.0 | 11.0 | 0.00 | 0.38 | 0.38 | 45 | 1014.3 |
| 20260507134018 | 74 | 135 | 4.0 | 7.0 | 0.00 | 0.38 | 0.38 | 46 | 1014.7 |
| 20260507133110 | 74 | 140 | 6.0 | 13.0 | 0.00 | 0.38 | 0.38 | 47 | 1014.5 |
| 20260507132120 | 74 | 112 | 6.0 | 14.0 | 0.00 | 0.38 | 0.38 | 50 | 1014.6 |
| 20260507131050 | 74 | 161 | 7.0 | 14.0 | 0.00 | 0.38 | 0.38 | 53 | 1014.5 |
| 20260507130040 | 73 | 149 | 5.0 | 10.0 | 0.00 | 0.38 | 0.38 | 56 | 1014.8 |
| 20260507125030 | 74 | 194 | 5.0 | 10.0 | 0.00 | 0.38 | 0.38 | 57 | 1014.8 |
| 20260507124020 | 74 | 164 | 4.0 | 11.0 | 0.00 | 0.38 | 0.38 | 58 | 1015.1 |
| 20260507123152 | 74 | 211 | 5.0 | 10.0 | 0.00 | 0.38 | 0.38 | 61 | 1014.9 |
| 20260507122101 | 74 | 132 | 6.0 | 13.0 | 0.00 | 0.38 | 0.38 | 60 | 1015.0 |
| 20260507121051 | 73 | 194 | 5.0 | 11.0 | 0.00 | 0.38 | 0.38 | 60 | 1014.9 |
| 20260507120041 | 74 | 191 | 5.0 | 13.0 | 0.00 | 0.38 | 0.38 | 59 | 1015.1 |
| 20260507115031 | 73 | 185 | 8.0 | 16.0 | 0.00 | 0.38 | 0.38 | 60 | 1015.1 |
| 20260507114021 | 73 | 185 | 7.0 | 15.0 | 0.00 | 0.38 | 0.38 | 61 | 1015.0 |
| 20260507113113 | 73 | 189 | 7.0 | 17.0 | 0.00 | 0.38 | 0.38 | 61 | 1015.2 |
| 20260507112102 | 72 | 192 | 6.0 | 14.0 | 0.00 | 0.38 | 0.38 | 62 | 1015.4 |
| 20260507111052 | 72 | 243 | 5.0 | 11.0 | 0.00 | 0.38 | 0.38 | 63 | 1015.4 |
| 20260507105032 | 72 | 123 | 3.0 | 15.0 | 0.00 | 0.38 | 0.38 | 63 | 1015.2 |
| 20260507104022 | 71 | 151 | 10.0 | 17.0 | 0.00 | 0.38 | 0.38 | 64 | 1015.3 |
| 20260507102527 | 71 | 139 | 9.0 | 21.0 | 0.00 | 0.38 | 0.38 | 66 | 1015.3 |
| 20260507101517 | 71 | 187 | 12.0 | 25.0 | 0.00 | 0.38 | 0.38 | 67 | 1015.5 |
| 20260507100609 | 70 | 194 | 9.0 | 19.0 | 0.00 | 0.38 | 0.38 | 68 | 1015.5 |
| 20260507095619 | 70 | 168 | 9.0 | 22.0 | 0.00 | 0.38 | 0.38 | 70 | 1015.5 |
| 20260507094549 | 69 | 186 | 13.0 | 23.0 | 0.00 | 0.38 | 0.38 | 71 | 1015.5 |
| 20260507093539 | 69 | 195 | 9.0 | 21.0 | 0.00 | 0.38 | 0.38 | 73 | 1015.4 |
| 20260507092528 | 69 | 191 | 9.0 | 24.0 | 0.00 | 0.38 | 0.38 | 73 | 1015.2 |
| 20260507091518 | 69 | 174 | 9.0 | 23.0 | 0.00 | 0.38 | 0.38 | 74 | 1015.0 |
| 20260507090610 | 68 | 173 | 9.0 | 21.0 | 0.00 | 0.38 | 0.38 | 75 | 1014.7 |
| 20260507085600 | 68 | 185 | 10.0 | 18.0 | 0.00 | 0.38 | 0.38 | 76 | 1014.5 |
| 20260507084549 | 67 | 175 | 10.0 | 24.0 | 0.00 | 0.38 | 0.38 | 77 | 1014.5 |
| 20260507083559 | 66 | 176 | 10.0 | 21.0 | 0.00 | 0.38 | 0.38 | 79 | 1014.4 |
| 20260507082550 | 66 | 151 | 8.0 | 17.0 | 0.00 | 0.38 | 0.38 | 79 | 1014.5 |
| 20260507081519 | 65 | 187 | 9.0 | 18.0 | 0.00 | 0.38 | 0.38 | 80 | 1014.4 |
| 20260507080610 | 65 | 177 | 11.0 | 18.0 | 0.00 | 0.38 | 0.38 | 80 | 1014.7 |
| 20260507075601 | 65 | 169 | 8.0 | 15.0 | 0.00 | 0.38 | 0.38 | 81 | 1014.8 |
| 20260507074551 | 65 | 169 | 8.0 | 18.0 | 0.00 | 0.38 | 0.38 | 81 | 1015.0 |
| 20260507073601 | 64 | 164 | 7.0 | 16.0 | 0.00 | 0.38 | 0.38 | 81 | 1015.1 |
| 20260507072530 | 64 | 184 | 7.0 | 19.0 | 0.00 | 0.38 | 0.38 | 82 | 1015.3 |
| 20260507071521 | 63 | 168 | 7.0 | 15.0 | 0.00 | 0.38 | 0.38 | 84 | 1015.5 |
| 20260507070631 | 62 | 130 | 5.0 | 11.0 | 0.00 | 0.38 | 0.38 | 87 | 1015.6 |
| 20260507065601 | 62 | 141 | 5.0 | 13.0 | 0.00 | 0.38 | 0.38 | 90 | 1015.5 |
| 20260507064551 | 61 | 113 | 5.0 | 10.0 | 0.00 | 0.38 | 0.38 | 91 | 1015.2 |
| 20260507063601 | 61 | 135 | 6.0 | 13.0 | 0.01 | 0.38 | 0.38 | 92 | 1015.2 |
| 20260507062531 | 61 | 135 | 8.0 | 17.0 | 0.01 | 0.38 | 0.38 | 93 | 1015.3 |
| 20260507061522 | 61 | 136 | 6.0 | 15.0 | 0.02 | 0.38 | 0.38 | 93 | 1015.4 |
| 20260507060612 | 61 | 140 | 10.0 | 17.0 | 0.02 | 0.38 | 0.38 | 93 | 1015.6 |
| 20260507055603 | 61 | 121 | 9.0 | 18.0 | 0.03 | 0.38 | 0.38 | 93 | 1015.8 |
| 20260507054553 | 61 | 134 | 6.0 | 13.0 | 0.04 | 0.38 | 0.38 | 93 | 1016.1 |
| 20260507053602 | 61 | 147 | 6.0 | 11.0 | 0.03 | 0.37 | 0.37 | 93 | 1016.1 |
| 20260507052532 | 61 | 156 | 5.0 | 8.0 | 0.04 | 0.37 | 0.37 | 93 | 1016.4 |
| 20260507051523 | 61 | 132 | 5.0 | 11.0 | 0.04 | 0.36 | 0.36 | 93 | 1016.4 |
| 20260507050613 | 61 | 133 | 7.0 | 11.0 | 0.05 | 0.36 | 0.36 | 93 | 1016.5 |
| 20260507045603 | 61 | 133 | 3.0 | 8.0 | 0.07 | 0.35 | 0.35 | 93 | 1016.7 |
| 20260507044553 | 61 | 128 | 5.0 | 9.0 | 0.09 | 0.34 | 0.34 | 93 | 1016.3 |
| 20260507043543 | 61 | 159 | 4.0 | 8.0 | 0.13 | 0.34 | 0.34 | 93 | 1016.2 |
| 20260507042533 | 60 | 144 | 2.0 | 7.0 | 0.15 | 0.33 | 0.33 | 93 | 1016.3 |
| 20260507041522 | 60 | 140 | 4.0 | 8.0 | 0.15 | 0.32 | 0.32 | 93 | 1016.3 |
| 20260507040613 | 60 | 137 | 3.0 | 6.0 | 0.16 | 0.31 | 0.31 | 92 | 1016.4 |
| 20260507035604 | 60 | 182 | 3.0 | 9.0 | 0.14 | 0.28 | 0.28 | 92 | 1016.4 |
| 20260507034613 | 60 | 178 | 3.0 | 8.0 | 0.13 | 0.25 | 0.25 | 92 | 1016.3 |
| 20260507033543 | 60 | 180 | 4.0 | 9.0 | 0.11 | 0.21 | 0.21 | 92 | 1016.4 |
| 20260507032534 | 60 | 181 | 4.0 | 11.0 | 0.10 | 0.18 | 0.18 | 92 | 1016.4 |
| 20260507031543 | 60 | 158 | 4.0 | 8.0 | 0.10 | 0.17 | 0.17 | 92 | 1016.1 |
| 20260507030614 | 60 | 181 | 2.0 | 6.0 | 0.09 | 0.15 | 0.15 | 91 | 1015.8 |
| 20260507025604 | 61 | 177 | 2.0 | 4.0 | 0.09 | 0.14 | 0.14 | 90 | 1015.7 |
| 20260507024554 | 61 | 289 | 0.0 | 1.0 | 0.07 | 0.12 | 0.12 | 90 | 1015.4 |
| 20260507023544 | 61 | 262 | 1.0 | 3.0 | 0.06 | 0.10 | 0.10 | 89 | 1015.5 |
| 20260507022534 | 61 | 150 | 2.0 | 3.0 | 0.04 | 0.08 | 0.08 | 88 | 1015.4 |
| 20260507021524 | 61 | 252 | 0.0 | 4.0 | 0.04 | 0.07 | 0.07 | 88 | 1015.5 |
| 20260507020615 | 61 | 139 | 5.0 | 8.0 | 0.03 | 0.06 | 0.06 | 87 | 1015.2 |
| 20260507015605 | 61 | 137 | 4.0 | 7.0 | 0.02 | 0.05 | 0.05 | 88 | 1015.2 |
| 20260507014555 | 61 | 131 | 3.0 | 4.0 | 0.03 | 0.05 | 0.05 | 88 | 1015.2 |
| 20260507013625 | 61 | 178 | 3.0 | 6.0 | 0.03 | 0.04 | 0.04 | 88 | 1015.1 |
| 20260507012535 | 62 | 201 | 1.0 | 3.0 | 0.03 | 0.04 | 0.04 | 88 | 1015.2 |
| 20260507011525 | 62 | 79 | 2.0 | 4.0 | 0.02 | 0.03 | 0.03 | 88 | 1015.2 |
| 20260507010615 | 62 | 95 | 2.0 | 4.0 | 0.03 | 0.03 | 0.03 | 87 | 1015.1 |
| 20260507005606 | 62 | 122 | 4.0 | 7.0 | 0.03 | 0.03 | 0.03 | 86 | 1015.1 |
| 20260507004556 | 62 | 151 | 3.0 | 6.0 | 0.02 | 0.02 | 0.02 | 86 | 1015.2 |
| 20260507003546 | 63 | 117 | 2.0 | 6.0 | 0.01 | 0.01 | 0.01 | 85 | 1015.1 |
| 20260507002536 | 63 | 142 | 1.0 | 2.0 | 0.01 | 0.01 | 0.01 | 84 | 1015.2 |
| 20260507001526 | 63 | 245 | 0.0 | 2.0 | 0.01 | 0.01 | 0.01 | 82 | 1015.2 |
| 20260507000516 | 63 | 218 | 1.0 | 3.0 | 0.00 | 0.00 | 0.00 | 80 | 1015.1 |
| 20260506235607 | 64 | 147 | 1.0 | 3.0 | 0.00 | 0.00 | 0.00 | 77 | 1015.0 |
| 20260506234637 | 64 | 290 | 0.0 | 1.0 | 0.00 | 0.00 | 0.00 | 74 | 1014.9 |
| 20260506233607 | 65 | 246 | 0.0 | 1.0 | 0.00 | 0.00 | 0.00 | 72 | 1015.0 |
| 20260506232537 | 65 | 217 | 2.0 | 4.0 | 0.00 | 0.00 | 0.00 | 71 | 1015.1 |
| 20260506231547 | 65 | 227 | 1.0 | 3.0 | 0.00 | 0.00 | 0.00 | 69 | 1015.2 |
| 20260506230517 | 65 | 225 | 1.0 | 4.0 | 0.00 | 0.00 | 0.00 | 68 | 1015.0 |
| 20260506225608 | 65 | 252 | 3.0 | 8.0 | 0.00 | 0.00 | 0.00 | 68 | 1015.0 |
| 20260506224600 | 65 | 256 | 2.0 | 8.0 | 0.00 | 0.00 | 0.00 | 68 | 1015.0 |
| 20260506223608 | 65 | 227 | 3.0 | 7.0 | 0.00 | 0.00 | 0.00 | 69 | 1015.0 |
| 20260506222538 | 66 | 222 | 3.0 | 4.0 | 0.00 | 0.00 | 0.00 | 69 | 1014.9 |
| 20260506221528 | 65 | 219 | 4.0 | 8.0 | 0.00 | 0.00 | 0.00 | 71 | 1015.0 |
| 20260506220517 | 65 | 259 | 3.0 | 11.0 | 0.00 | 0.00 | 0.00 | 74 | 1015.0 |
| 20260506215610 | 65 | 196 | 6.0 | 9.0 | 0.00 | 0.00 | 0.00 | 76 | 1015.1 |
| 20260506214559 | 65 | 185 | 6.0 | 9.0 | 0.00 | 0.00 | 0.00 | 76 | 1015.1 |
| 20260506213549 | 65 | 165 | 6.0 | 10.0 | 0.00 | 0.00 | 0.00 | 76 | 1015.2 |
| 20260506212539 | 65 | 200 | 7.0 | 15.0 | 0.00 | 0.00 | 0.00 | 76 | 1015.2 |
| 20260506211529 | 65 | 210 | 6.0 | 15.0 | 0.00 | 0.00 | 0.00 | 76 | 1015.1 |
| 20260506210539 | 65 | 193 | 6.0 | 17.0 | 0.00 | 0.00 | 0.00 | 76 | 1015.0 |
| 20260506205611 | 65 | 216 | 7.0 | 14.0 | 0.00 | 0.00 | 0.00 | 77 | 1014.8 |
| 20260506204600 | 65 | 195 | 6.0 | 14.0 | 0.00 | 0.00 | 0.00 | 77 | 1014.7 |
| 20260506203550 | 65 | 195 | 7.0 | 11.0 | 0.00 | 0.00 | 0.00 | 77 | 1014.7 |
| 20260506202540 | 65 | 185 | 6.0 | 11.0 | 0.00 | 0.00 | 0.00 | 77 | 1014.7 |
| 20260506201550 | 64 | 186 | 7.0 | 10.0 | 0.00 | 0.00 | 0.00 | 77 | 1014.5 |
| 20260506200520 | 65 | 179 | 4.0 | 13.0 | 0.00 | 0.00 | 0.00 | 77 | 1014.5 |
| 20260506195631 | 65 | 194 | 4.0 | 10.0 | 0.00 | 0.00 | 0.00 | 77 | 1014.3 |
| 20260506194601 | 65 | 173 | 6.0 | 11.0 | 0.00 | 0.00 | 0.00 | 76 | 1014.2 |
| 20260506193551 | 65 | 191 | 4.0 | 9.0 | 0.00 | 0.00 | 0.00 | 76 | 1014.0 |
| 20260506192541 | 65 | 209 | 5.0 | 13.0 | 0.00 | 0.00 | 0.00 | 76 | 1013.9 |
| 20260506191551 | 65 | 167 | 6.0 | 11.0 | 0.00 | 0.00 | 0.00 | 76 | 1014.0 |
| 20260506190521 | 66 | 180 | 7.0 | 13.0 | 0.00 | 0.00 | 0.00 | 76 | 1013.9 |
| 20260506185612 | 66 | 159 | 4.0 | 10.0 | 0.00 | 0.00 | 0.00 | 76 | 1013.8 |
| 20260506184602 | 66 | 191 | 5.0 | 13.0 | 0.00 | 0.00 | 0.00 | 76 | 1013.8 |
| 20260506183552 | 66 | 168 | 5.0 | 11.0 | 0.00 | 0.00 | 0.00 | 75 | 1014.0 |
| 20260506182542 | 66 | 148 | 6.0 | 11.0 | 0.00 | 0.00 | 0.00 | 75 | 1013.9 |
| 20260506181532 | 66 | 157 | 9.0 | 16.0 | 0.00 | 0.00 | 0.00 | 75 | 1013.9 |
| 20260506180522 | 66 | 171 | 5.0 | 14.0 | 0.00 | 0.00 | 0.00 | 75 | 1013.9 |
| 20260506175613 | 67 | 160 | 6.0 | 14.0 | 0.00 | 0.00 | 0.00 | 74 | 1013.8 |
| 20260506174604 | 67 | 173 | 5.0 | 13.0 | 0.00 | 0.00 | 0.00 | 73 | 1013.9 |
| 20260506173613 | 67 | 163 | 7.0 | 15.0 | 0.00 | 0.00 | 0.00 | 73 | 1013.8 |
| 20260506172543 | 68 | 202 | 5.0 | 10.0 | 0.00 | 0.00 | 0.00 | 73 | 1013.9 |
| 20260506171533 | 68 | 177 | 6.0 | 10.0 | 0.00 | 0.00 | 0.00 | 72 | 1013.9 |
| 20260506170523 | 68 | 169 | 4.0 | 10.0 | 0.00 | 0.00 | 0.00 | 71 | 1013.9 |
| 20260506165614 | 69 | 132 | 4.0 | 10.0 | 0.00 | 0.00 | 0.00 | 70 | 1013.8 |
| 20260506164604 | 69 | 180 | 7.0 | 14.0 | 0.00 | 0.00 | 0.00 | 69 | 1013.8 |
| 20260506163554 | 70 | 206 | 5.0 | 11.0 | 0.00 | 0.00 | 0.00 | 67 | 1013.6 |
| 20260506162544 | 71 | 200 | 8.0 | 13.0 | 0.00 | 0.00 | 0.00 | 66 | 1013.6 |
| 20260506161534 | 72 | 184 | 5.0 | 9.0 | 0.00 | 0.00 | 0.00 | 65 | 1013.6 |
| 20260506160524 | 72 | 134 | 6.0 | 13.0 | 0.00 | 0.00 | 0.00 | 65 | 1013.6 |
| 20260506155616 | 72 | 157 | 5.0 | 9.0 | 0.00 | 0.00 | 0.00 | 64 | 1013.9 |
| 20260506154625 | 73 | 149 | 5.0 | 9.0 | 0.00 | 0.00 | 0.00 | 64 | 1013.7 |
| 20260506153555 | 73 | 144 | 4.0 | 10.0 | 0.00 | 0.00 | 0.00 | 64 | 1013.7 |
| 20260506152605 | 73 | 130 | 5.0 | 10.0 | 0.00 | 0.00 | 0.00 | 63 | 1013.6 |
| 20260506151535 | 74 | 165 | 6.0 | 11.0 | 0.00 | 0.00 | 0.00 | 62 | 1013.6 |
| 20260506150525 | 74 | 112 | 5.0 | 10.0 | 0.00 | 0.00 | 0.00 | 62 | 1013.6 |